Location: Marcé
(47.5801°N, 0.3280°W)
Time: 14:15:04
(UTC+01:00)

ISS - Pass Details

Date: 25 October 2021
Orbit: 417 x 422 km, 51.6° (Epoch: 07 December)

Event Time Altitude Azimuth Distance (km) Brightness Sun altitude
Exits shadow 06:19:41 23° 147° (SSE) 947 -1.8 -23.4°
Maximum altitude 06:19:57 23° 140° (SE) 941 -1.7 -23.3°
Drops below altitude 10° 06:22:40 10° 86° (E) 1,499 0.2 -22.9°
Sets 06:25:02 0° 71° (ENE) 2,365 1.4 -22.5°
